[[{"header":{"parameterUnit":"m.s-1","parameterCategory":1,"la1":30.2991,"la2":30.254,"lo1":-89.0895,"lo2":-89.0444,"dy":0.0017,"dx":0.0017,"nx":28,"ny":28,"refTime":"2024-06-28T09:00:00:Z","depth":0,"parameterNumber":2,"parameterNumberName":"U-component_of_WINDS"},"data":[0,0,0,0,0,0,0,0,0,0,0,0,0,0,0,0,0,0,0,0,0,0,0,0,0,0,0,0,0,0,0,0,0,0,0,0,0,0,0,0,0,0,0,0,0,0,0,0,0,0,0,0,0,0,0,0,0,0,2.4068,2.4068,0,2.4064,2.4064,2.4064,2.4003,2.4002,2.4,2.3999,2.3992,2.3993,2.3995,0,0,0,0,0,0,0,0,0,0,0,0,0,2.4018,2.4019,2.4068,2.4068,2.4068,2.4064,2.4064,2.4064,2.4003,2.4002,2.4,2.3998,2.3992,2.3993,2.3995,0,0,0,0,0,0,0,0,0,0,0,0,0,2.403,2.402,2.4068,2.4037,2.4034,2.4064,2.4064,2.4064,2.4004,2.4001,2.3999,2.3997,2.3991,2.3993,2.3995,2.4052,0,0,2.4001,2.4001,0,0,0,0,0,0,0,0,2.4029,2.4031,2.4042,2.4039,2.4036,2.4032,2.4044,2.406,2.4004,2.4015,2.3999,2.3996,2.4007,2.4007,2.4012,2.4052,2.4052,2.4001,2.4002,2.4003,2.4003,0,0,0,0,0,0,0,2.4028,2.4031,2.4066,2.4042,2.4039,2.4022,2.4021,2.4046,2.4024,2.4014,2.401,2.401,2.4005,2.401,2.4011,2.4052,2.4001,2.4002,2.4004,2.4004,2.4134,2.4136,0,0,0,0,0,0,2.4032,2.4031,2.4066,2.4066,2.4027,2.4025,2.4024,2.4035,2.4024,2.402,2.4012,2.4007,2.4008,2.4009,2.4011,2.4073,2.4003,2.4004,2.4006,2.4132,2.4134,2.4137,0,0,0,0,0,0,2.4031,2.4036,2.4066,2.4047,2.405,2.4028,2.4042,2.4037,2.4041,2.4022,2.4017,2.4022,2.4006,2.4008,2.4041,2.4072,2.4005,2.4007,2.4129,2.4133,2.4136,2.4202,0,0,0,0,0,0,2.403,2.4036,2.4059,2.4048,2.4051,2.4099,2.4044,2.4038,2.4045,2.4039,2.403,2.4026,2.4004,2.4039,2.4043,2.4074,2.4009,2.4126,2.4131,2.4135,2.4197,2.4207,2.4216,0,0,0,0,0,2.4029,2.4078,2.4061,2.4065,2.408,2.4101,2.4102,2.4077,2.4048,2.4069,2.4056,2.4026,2.4069,2.4043,2.4047,2.4079,2.4124,2.4129,2.4134,2.4192,2.4205,2.4216,0,0,0,0,0,0,2.4094,2.4077,2.4057,2.4105,2.4105,2.4091,2.4118,2.4092,2.41,2.4094,2.4062,2.406,2.4097,2.4092,2.4063,2.4131,2.4091,2.4097,2.4133,2.4145,2.4155,2.4154,2.401,0,0,0,0,0,2.4114,2.4134,2.4117,2.4161,2.4162,2.414,2.4149,2.4129,2.4127,2.4127,2.4116,2.4115,2.4127,2.4137,2.4148,2.4196,2.4191,2.422,2.4229,2.4237,2.4242,2.4263,2.4275,2.4154,2.4154,2.4154,0,0,2.4155,2.4148,2.4163,2.4174,2.4172,2.4191,2.4141,2.4164,2.4177,2.413,2.416,2.4153,2.4149,2.4189,2.4206,2.4185,2.4275,2.4244,2.4251,2.4251,2.427,2.4281,2.4291,2.4158,2.4157,2.4156,0,0,2.4239,2.4238,2.4272,2.427,2.4267,2.4252,2.426,2.4249,2.4242,2.4272,2.4236,2.425,2.4274,2.4271,2.4273,2.4353,2.4324,2.4358,2.4407,2.4428,2.4437,2.4445,2.447,2.448,2.4363,2.4363,2.4363,0,2.4291,2.4319,2.4293,2.4317,2.4321,2.428,2.4312,2.4312,2.4312,2.4315,2.4292,2.4318,2.4313,2.435,2.4369,2.4373,2.4379,2.4357,2.4438,2.4446,2.4453,2.4477,2.4486,2.4367,2.4367,2.4366,2.4366,0,2.438,2.4401,2.4428,2.4429,2.4437,2.4466,2.4441,2.4451,2.4431,2.4417,2.4445,2.4438,2.4444,2.4452,2.4433,2.4485,2.4472,2.4444,2.4402,2.4469,2.449,2.4499,2.4373,2.4371,2.437,2.4369,0,0,2.4506,2.449,2.45,2.4498,2.449,2.4504,2.453,2.4536,2.4544,2.4545,2.4563,2.4583,2.4556,2.4558,2.4538,2.4557,2.4615,2.4526,2.4525,2.454,2.4668,2.4686,2.4697,2.4597,2.4598,2.46,2.4667,0,2.4584,2.4627,2.4602,2.4647,2.4663,2.4623,2.4644,2.464,2.4628,2.4638,2.4624,2.4636,2.4603,2.4603,2.462,2.4605,2.464,2.46,2.461,2.4611,2.4609,2.4709,2.4729,2.4793,2.4675,2.4677,2.4678,0,2.4681,2.4685,2.4732,2.4717,2.4723,2.4743,2.4745,2.4756,2.475,2.4739,2.474,2.4714,2.4735,2.4696,2.4722,2.4695,2.4698,2.4691,2.4693,2.4691,2.4646,2.4706,2.4813,2.4821,2.4691,2.469,2.4689,0,2.4763,2.4781,2.4809,2.481,2.4795,2.4809,2.4803,2.4794,2.4799,2.48,2.4801,2.4806,2.4807,2.481,2.4784,2.4759,2.4813,2.4772,2.4802,2.4802,2.4813,2.4812,2.4919,2.4821,2.4821,2.482,2.482,0,2.4851,2.488,2.4845,2.4863,2.4893,2.4864,2.4894,2.4884,2.4876,2.4889,2.4856,2.4868,2.4835,2.4844,2.4825,2.4847,2.4849,2.4839,2.4833,2.484,2.4841,2.484,2.4833,2.4823,2.4822,2.4822,2.4821,0,2.4947,2.4925,2.4953,2.4936,2.4932,2.4955,2.4939,2.4953,2.4938,2.4955,2.4957,2.4932,2.494,2.4915,2.492,2.4907,2.4939,2.4927,2.4941,2.4936,2.4966,2.4962,2.5073,2.5084,2.4982,2.4983,2.4984,0,2.5003,2.5024,2.5008,2.5014,2.501,2.5021,2.5025,2.4996,2.5,2.4993,2.5007,2.5013,2.5015,2.503,2.5011,2.5014,2.4999,2.5038,2.5,2.5005,2.4995,2.4993,2.4993,2.5045,2.5047,2.5048,2.5048,0,2.5103,2.509,2.5097,2.5099,2.5104,2.5104,2.5102,2.5109,2.5078,2.5084,2.5092,2.5094,2.5097,2.5102,2.51,2.5092,2.5064,2.5061,2.5067,2.5074,2.5079,2.5073,2.4959,2.5058,2.5057,2.5056,2.5056,2.5055,2.5178,2.5193,2.5183,2.5191,2.5186,2.5184,2.5195,2.518,2.5187,2.5187,2.517,2.518,2.517,2.5164,2.5159,2.5165,2.5147,2.5157,2.5159,2.5161,2.5164,2.5081,2.5165,2.5165,2.5164,2.5164,2.5164,0,2.5273,2.5264,2.5272,2.5268,2.5274,2.5248,2.5243,2.5249,2.5258,2.5252,2.5254,2.5261,2.5265,2.5246,2.5246,2.5254,2.5241,2.5255,2.5253,2.525,2.5182,2.5175,2.5265,2.5265,2.5265,2.5265,2.5265,2.5265,2.5323,2.5346,2.5332,2.5351,2.5342,2.5352,2.5351,2.5347,2.5341,2.5351,2.5353,2.5341,2.5328,2.5327,2.5328,2.5322,2.5322,2.534,2.533,2.5266,2.5256,2.5246,2.5239,2.5341,2.5341,2.5396,2.5397,2.5397]},{"header":{"parameterUnit":"m.s-1","parameterCategory":1,"la1":30.2991,"la2":30.254,"lo1":-89.0895,"lo2":-89.0444,"dy":0.0017,"dx":0.0017,"nx":28,"ny":28,"refTime":"2024-06-28T09:00:00:Z","depth":0,"parameterNumber":3,"parameterNumberName":"V-component_of_WINDS"},"data":[0,0,0,0,0,0,0,0,0,0,0,0,0,0,0,0,0,0,0,0,0,0,0,0,0,0,0,0,0,0,0,0,0,0,0,0,0,0,0,0,0,0,0,0,0,0,0,0,0,0,0,0,0,0,0,0,0,0,6.4123,6.4123,0,6.418,6.4181,6.4181,6.4124,6.4122,6.4119,6.4117,6.4171,6.4174,6.4178,0,0,0,0,0,0,0,0,0,0,0,0,0,6.3957,6.3961,6.4123,6.4123,6.4124,6.418,6.4181,6.4181,6.4124,6.4121,6.4119,6.4116,6.417,6.4174,6.4178,0,0,0,0,0,0,0,0,0,0,0,0,0,6.4023,6.3962,6.4123,6.4103,6.4101,6.418,6.4181,6.4182,6.4125,6.4121,6.4118,6.4115,6.4168,6.4173,6.4179,6.4278,0,0,6.4195,6.4197,0,0,0,0,0,0,0,0,6.402,6.4029,6.4105,6.4104,6.4103,6.4141,6.4142,6.4214,6.4126,6.4116,6.4117,6.4113,6.4163,6.4169,6.4187,6.4281,6.4283,6.4195,6.4198,6.4201,6.4202,0,0,0,0,0,0,0,6.4015,6.4026,6.4145,6.4106,6.4105,6.4088,6.4094,6.4155,6.4157,6.4116,6.4112,6.412,6.4162,6.4182,6.4188,6.4284,6.4195,6.42,6.4203,6.4205,6.4458,6.4462,0,0,0,0,0,0,6.4013,6.4023,6.4143,6.4147,6.4052,6.4094,6.41,6.4132,6.4157,6.4157,6.4123,6.4117,6.4175,6.4182,6.4189,6.4305,6.4201,6.4206,6.4209,6.4455,6.4459,6.4463,0,0,0,0,0,0,6.401,6.4025,6.4141,6.4084,6.4098,6.4101,6.4137,6.4135,6.4155,6.4162,6.4161,6.4143,6.4172,6.4182,6.4256,6.4306,6.4208,6.4213,6.445,6.4456,6.4461,6.4538,0,0,0,0,0,0,6.4006,6.4024,6.4064,6.4085,6.4101,6.4209,6.414,6.4139,6.4165,6.4158,6.4181,6.4181,6.417,6.4248,6.4261,6.4311,6.4217,6.4446,6.4453,6.4459,6.4531,6.4546,6.4558,0,0,0,0,0,6.4,6.4083,6.4066,6.4081,6.4151,6.4212,6.4221,6.4208,6.4169,6.4207,6.4211,6.418,6.4299,6.4257,6.427,6.4323,6.4443,6.4451,6.4459,6.4525,6.4543,6.4558,0,0,0,0,0,0,6.4066,6.4085,6.4067,6.416,6.4185,6.4202,6.4251,6.4228,6.4263,6.4255,6.4236,6.4242,6.432,6.4329,6.4282,6.4419,6.4364,6.4375,6.441,6.4427,6.444,6.4435,6.4221,0,0,0,0,0,6.4092,6.4142,6.4155,6.4236,6.4249,6.4248,6.4274,6.4262,6.4287,6.4297,6.4306,6.433,6.4372,6.44,6.4439,6.4533,6.4535,6.4575,6.4589,6.46,6.4609,6.4656,6.4673,6.4489,6.4489,6.4489,0,0,6.4144,6.4161,6.4194,6.4249,6.4267,6.4317,6.4257,6.4313,6.4349,6.4305,6.4375,6.4383,6.4407,6.4491,6.4528,6.4501,6.466,6.461,6.4619,6.4622,6.4666,6.4683,6.4698,6.4495,6.4494,6.4493,0,0,6.4266,6.4285,6.4353,6.4372,6.44,6.4398,6.4414,6.4435,6.4439,6.4509,6.4476,6.4518,6.4592,6.461,6.4629,6.4754,6.4726,6.4768,6.4837,6.4882,6.4897,6.4909,6.4951,6.4967,6.4777,6.4777,6.4777,0,6.4327,6.4403,6.439,6.4448,6.4471,6.4435,6.4501,6.452,6.4559,6.4575,6.4544,6.4635,6.4649,6.4734,6.4765,6.4783,6.4798,6.4764,6.4896,6.4909,6.492,6.496,6.4976,6.4782,6.4782,6.4781,6.4781,0,6.4476,6.4529,6.4579,6.4619,6.4648,6.471,6.4704,6.4735,6.472,6.4721,6.4791,6.4807,6.4847,6.4867,6.4853,6.495,6.4932,6.4899,6.4843,6.4943,6.498,6.4995,6.4789,6.4787,6.4786,6.4785,0,0,6.4641,6.4671,6.4689,6.4705,6.4733,6.4772,6.4831,6.4872,6.4897,6.4925,6.4972,6.5034,6.5004,6.5025,6.5012,6.5053,6.5148,6.5015,6.5015,6.5037,6.5252,6.5275,6.5293,6.513,6.5133,6.5135,6.5249,0,6.476,6.4864,6.4853,6.4951,6.4997,6.4962,6.5012,6.5033,6.5035,6.5073,6.5074,6.5118,6.5075,6.5087,6.5126,6.5128,6.519,6.512,6.517,6.5173,6.5164,6.5313,6.5338,6.5445,6.5264,6.5266,6.5268,0,6.4915,6.4948,6.5051,6.5068,6.5087,6.5134,6.5168,6.5206,6.5228,6.5226,6.5249,6.5229,6.5285,6.5229,6.5305,6.5257,6.5277,6.5281,6.5284,6.5287,6.5225,6.5317,6.5479,6.5494,6.5291,6.5289,6.5288,0,6.5021,6.5092,6.5161,6.5176,6.52,6.5232,6.5243,6.5262,6.5286,6.5316,6.5331,6.5367,6.5386,6.5413,6.5402,6.5363,6.5478,6.5423,6.5476,6.5476,6.55,6.5499,6.5665,6.5517,6.5517,6.5517,6.5516,0,6.5155,6.5218,6.5209,6.5252,6.532,6.5306,6.5374,6.538,6.5396,6.5438,6.5409,6.5448,6.5432,6.5469,6.5461,6.5523,6.5532,6.553,6.5527,6.5532,6.5532,6.5543,6.5535,6.5521,6.552,6.5519,6.5518,0,6.5285,6.5282,6.5355,6.537,6.5376,6.5425,6.5438,6.5476,6.5475,6.5528,6.5539,6.5537,6.5579,6.5571,6.5618,6.5612,6.5689,6.5677,6.5682,6.5678,6.5731,6.5725,6.5909,6.5931,6.5771,6.5773,6.5774,0,6.5369,6.5417,6.5438,6.5464,6.5477,6.552,6.5544,6.5531,6.5557,6.5584,6.5619,6.5659,6.569,6.5758,6.576,6.5794,6.5782,6.5844,6.5787,6.5789,6.578,6.5776,6.5779,6.5855,6.5856,6.5858,6.5859,0,6.5519,6.5515,6.5552,6.5588,6.5618,6.5645,6.567,6.5692,6.5681,6.5711,6.5754,6.5778,6.5825,6.5864,6.5896,6.5904,6.5879,6.5877,6.5891,6.5895,6.5895,6.5893,6.571,6.5873,6.5871,6.587,6.587,6.5869,6.5627,6.5667,6.5687,6.5728,6.5745,6.5768,6.5805,6.5808,6.5844,6.5882,6.5872,6.592,6.5937,6.5978,6.599,6.6026,6.6003,6.6023,6.6028,6.6033,6.6038,6.5891,6.6032,6.6032,6.6031,6.6031,6.6031,0,6.5773,6.5784,6.5822,6.5857,6.5889,6.5864,6.5889,6.5917,6.596,6.5979,6.601,6.6058,6.6095,6.6099,6.6134,6.6161,6.615,6.6171,6.6167,6.6169,6.6058,6.6042,6.6179,6.6179,6.6179,6.6179,6.6179,6.6179,6.5852,6.5917,6.5915,6.5987,6.5997,6.6044,6.606,6.6081,6.6096,6.6151,6.6182,6.6185,6.6197,6.6232,6.6264,6.6264,6.6277,6.6301,6.6296,6.6192,6.6177,6.6163,6.6148,6.6305,6.6305,6.6404,6.6405,6.6406]}]]